| time (UTC) | temp C | wind direction | speed KPH | gust KPH | rain 1hr cm | rain 24hr cm | rain mn cm | humidity % | barometer mb |
| 20260505153238 | 16 | 286 | 1.6 | 1.6 | 0.00 | 0.00 | 0.00 | 99 | 1006.8 |
| 20260505152735 | 16 | 336 | 3.2 | 3.2 | 0.00 | 0.00 | 0.00 | 99 | 1006.9 |
| 20260505152232 | 16 | 11 | 1.6 | 1.6 | 0.00 | 0.00 | 0.00 | 99 | 1006.7 |
| 20260505151726 | 16 | 321 | 0.0 | 0.0 | 0.00 | 0.00 | 0.00 | 99 | 1006.9 |
| 20260505151224 | 16 | 327 | 0.0 | 1.6 | 0.00 | 0.00 | 0.00 | 99 | 1006.6 |
| 20260505150720 | 16 | 288 | 1.6 | 3.2 | 0.00 | 0.00 | 0.00 | 99 | 1006.8 |
| 20260505150217 | 16 | 259 | 4.8 | 4.8 | 0.00 | 0.00 | 0.00 | 99 | 1006.8 |
| 20260505140645 | 16 | 254 | 0.0 | 0.0 | 0.00 | 0.00 | 0.00 | 99 | 1006.8 |
| 20260505140142 | 16 | 260 | 1.6 | 1.6 | 0.00 | 0.00 | 0.00 | 99 | 1006.7 |
| 20260505130106 | 15 | 269 | 1.6 | 1.6 | 0.00 | 0.00 | 0.00 | 99 | 1007.3 |
| 20260505124555 | 15 | 257 | 3.2 | 3.2 | 0.00 | 0.00 | 0.00 | 99 | 1006.8 |
| 20260505124051 | 15 | 252 | 1.6 | 3.2 | 0.00 | 0.00 | 0.00 | 99 | 1006.7 |
| 20260505123548 | 15 | 326 | 3.2 | 3.2 | 0.00 | 0.00 | 0.00 | 99 | 1006.8 |
| 20260505123044 | 15 | 341 | 3.2 | 3.2 | 0.00 | 0.00 | 0.00 | 99 | 1007.1 |
| 20260505122541 | 15 | 203 | 3.2 | 3.2 | 0.00 | 0.00 | 0.00 | 99 | 1006.6 |
| 20260505122039 | 15 | 158 | 0.0 | 0.0 | 0.00 | 0.00 | 0.00 | 99 | 1006.4 |
| 20260505121535 | 15 | 158 | 0.0 | 0.0 | 0.00 | 0.00 | 0.00 | 99 | 1006.0 |
| 20260505121032 | 15 | 91 | 0.0 | 0.0 | 0.00 | 0.00 | 0.00 | 99 | 1006.0 |
| 20260505120528 | 15 | 127 | 1.6 | 3.2 | 0.00 | 0.00 | 0.00 | 99 | 1005.8 |
| 20260505120024 | 15 | 306 | 0.0 | 1.6 | 0.00 | 0.00 | 0.00 | 99 | 1005.8 |
| 20260505115518 | 15 | 335 | 0.0 | 0.0 | 0.00 | 0.00 | 0.00 | 99 | 1005.8 |
| 20260505115017 | 15 | 260 | 1.6 | 1.6 | 0.00 | 0.00 | 0.00 | 99 | 1005.8 |
| 20260505114513 | 15 | 33 | 0.0 | 0.0 | 0.00 | 0.00 | 0.00 | 99 | 1005.7 |
| 20260505114009 | 15 | 79 | 0.0 | 0.0 | 0.00 | 0.00 | 0.00 | 99 | 1005.7 |
| 20260505113506 | 15 | 130 | 3.2 | 3.2 | 0.00 | 0.00 | 0.00 | 99 | 1005.6 |
| 20260505113003 | 15 | 151 | 3.2 | 3.2 | 0.00 | 0.00 | 0.00 | 99 | 1005.9 |
| 20260505112459 | 15 | 146 | 1.6 | 3.2 | 0.00 | 0.00 | 0.00 | 99 | 1005.6 |
| 20260505111956 | 15 | 128 | 0.0 | 0.0 | 0.00 | 0.00 | 0.00 | 99 | 1005.5 |
| 20260505111450 | 15 | 157 | 0.0 | 1.6 | 0.00 | 0.00 | 0.00 | 99 | 1005.4 |
| 20260505110947 | 15 | 121 | 1.6 | 1.6 | 0.00 | 0.00 | 0.00 | 99 | 1005.4 |
| 20260505110444 | 15 | 145 | 3.2 | 3.2 | 0.00 | 0.00 | 0.00 | 99 | 1005.4 |
| 20260505101915 | 15 | 152 | 3.2 | 4.8 | 0.00 | 0.00 | 0.00 | 99 | 1006.2 |
| 20260505101409 | 15 | 172 | 3.2 | 3.2 | 0.00 | 0.00 | 0.00 | 99 | 1006.0 |
| 20260505100905 | 15 | 136 | 3.2 | 3.2 | 0.00 | 0.00 | 0.00 | 99 | 1006.5 |
| 20260505100402 | 15 | 164 | 3.2 | 3.2 | 0.00 | 0.00 | 0.00 | 99 | 1006.4 |
| 20260505095857 | 15 | 169 | 4.8 | 4.8 | 0.00 | 0.00 | 0.00 | 99 | 1006.4 |
| 20260505095355 | 15 | 145 | 3.2 | 3.2 | 0.00 | 0.00 | 0.00 | 99 | 1006.6 |
| 20260505094851 | 15 | 210 | 4.8 | 4.8 | 0.00 | 0.00 | 0.00 | 99 | 1006.7 |
| 20260505094348 | 15 | 290 | 0.0 | 0.0 | 0.00 | 0.00 | 0.00 | 99 | 1006.6 |
| 20260505093843 | 15 | 6 | 0.0 | 0.0 | 0.00 | 0.00 | 0.00 | 99 | 1006.8 |
| 20260505093341 | 15 | 91 | 0.0 | 0.0 | 0.00 | 0.00 | 0.00 | 99 | 1006.9 |
| 20260505092838 | 15 | 135 | 0.0 | 0.0 | 0.00 | 0.00 | 0.00 | 99 | 1006.8 |
| 20260505092336 | 15 | 274 | 0.0 | 0.0 | 0.00 | 0.00 | 0.00 | 99 | 1007.1 |
| 20260505091833 | 15 | 193 | 1.6 | 3.2 | 0.00 | 0.00 | 0.00 | 99 | 1006.6 |
| 20260505091331 | 15 | 18 | 0.0 | 0.0 | 0.00 | 0.00 | 0.00 | 99 | 1006.7 |
| 20260505090829 | 15 | 119 | 0.0 | 0.0 | 0.00 | 0.00 | 0.00 | 99 | 1006.9 |
| 20260505090327 | 15 | 187 | 4.8 | 4.8 | 0.00 | 0.00 | 0.00 | 99 | 1006.8 |
| 20260505085824 | 15 | 333 | 0.0 | 0.0 | 0.00 | 0.00 | 0.00 | 99 | 1006.6 |
| 20260505085322 | 15 | 230 | 0.0 | 0.0 | 0.00 | 0.00 | 0.00 | 99 | 1006.7 |
| 20260505084819 | 15 | 165 | 3.2 | 3.2 | 0.00 | 0.00 | 0.00 | 99 | 1007.0 |
| 20260505084318 | 15 | 355 | 1.6 | 1.6 | 0.00 | 0.00 | 0.00 | 99 | 1007.4 |
| 20260505083814 | 15 | 275 | 1.6 | 1.6 | 0.00 | 0.00 | 0.00 | 99 | 1006.9 |
| 20260505083312 | 15 | 331 | 0.0 | 0.0 | 0.00 | 0.00 | 0.00 | 99 | 1007.0 |
| 20260505082808 | 15 | 168 | 0.0 | 0.0 | 0.00 | 0.00 | 0.00 | 99 | 1006.9 |
| 20260505082305 | 15 | 265 | 3.2 | 3.2 | 0.00 | 0.00 | 0.00 | 99 | 1007.9 |
| 20260505081802 | 15 | 18 | 1.6 | 3.2 | 0.00 | 0.00 | 0.00 | 99 | 1007.4 |
| 20260505081258 | 15 | 336 | 1.6 | 1.6 | 0.00 | 0.00 | 0.00 | 99 | 1007.5 |
| 20260505080755 | 15 | 241 | 1.6 | 3.2 | 0.00 | 0.00 | 0.00 | 99 | 1006.0 |
| 20260505080250 | 15 | 132 | 3.2 | 3.2 | 0.00 | 0.00 | 0.00 | 99 | 1006.9 |
| 20260505075746 | 15 | 328 | 11.3 | 16.1 | 0.00 | 0.00 | 0.00 | 99 | 1007.5 |
| 20260505075244 | 15 | 196 | 3.2 | 3.2 | 0.00 | 0.00 | 0.00 | 99 | 1005.7 |
| 20260505074741 | 15 | 297 | 0.0 | 1.6 | 0.00 | 0.00 | 0.00 | 99 | 1007.6 |
| 20260505074238 | 15 | 289 | 3.2 | 3.2 | 0.00 | 0.00 | 0.00 | 99 | 1007.1 |
| 20260505073736 | 15 | 350 | 0.0 | 0.0 | 0.00 | 0.00 | 0.00 | 99 | 1006.8 |
| 20260505073233 | 15 | 163 | 0.0 | 0.0 | 0.00 | 0.00 | 0.00 | 99 | 1007.5 |
| 20260505072730 | 15 | 298 | 0.0 | 0.0 | 0.00 | 0.00 | 0.00 | 99 | 1007.5 |
| 20260505072226 | 15 | 316 | 0.0 | 0.0 | 0.00 | 0.00 | 0.00 | 99 | 1007.6 |
| 20260505071721 | 15 | 90 | 0.0 | 0.0 | 0.00 | 0.00 | 0.00 | 99 | 1008.4 |
| 20260505071219 | 15 | 217 | 4.8 | 4.8 | 0.00 | 0.00 | 0.00 | 98 | 1007.9 |
| 20260505070716 | 16 | 37 | 4.8 | 11.3 | 0.00 | 0.00 | 0.00 | 98 | 1008.4 |
| 20260505070212 | 16 | 350 | 14.5 | 20.9 | 0.00 | 0.00 | 0.00 | 98 | 1008.4 |
| 20260505065708 | 16 | 128 | 1.6 | 1.6 | 0.00 | 0.00 | 0.00 | 97 | 1007.5 |
| 20260505065205 | 16 | 241 | 4.8 | 4.8 | 0.00 | 0.00 | 0.00 | 97 | 1007.7 |
| 20260505064702 | 16 | 295 | 1.6 | 1.6 | 0.00 | 0.00 | 0.00 | 97 | 1007.5 |
| 20260505064200 | 16 | 336 | 3.2 | 3.2 | 0.00 | 0.00 | 0.00 | 96 | 1007.9 |
| 20260505063657 | 16 | 346 | 1.6 | 1.6 | 0.00 | 0.00 | 0.00 | 96 | 1007.0 |
| 20260505063153 | 16 | 34 | 0.0 | 0.0 | 0.00 | 0.00 | 0.00 | 96 | 1006.0 |
| 20260505062649 | 16 | 93 | 0.0 | 0.0 | 0.00 | 0.00 | 0.00 | 96 | 1006.5 |
| 20260505062147 | 16 | 131 | 3.2 | 3.2 | 0.00 | 0.00 | 0.00 | 95 | 1006.9 |
| 20260505061644 | 16 | 335 | 0.0 | 0.0 | 0.00 | 0.00 | 0.00 | 94 | 1007.5 |
| 20260505061143 | 16 | 302 | 1.6 | 1.6 | 0.00 | 0.00 | 0.00 | 94 | 1007.0 |
| 20260505060640 | 16 | 138 | 1.6 | 1.6 | 0.00 | 0.00 | 0.00 | 94 | 1006.4 |
| 20260505060136 | 16 | 144 | 1.6 | 3.2 | 0.00 | 0.00 | 0.00 | 92 | 1006.9 |
| 20260505055631 | 17 | 197 | 0.0 | 1.6 | 0.00 | 0.00 | 0.00 | 91 | 1007.2 |
| 20260505055128 | 17 | 200 | 1.6 | 1.6 | 0.00 | 0.00 | 0.00 | 90 | 1006.6 |
| 20260505054626 | 17 | 124 | 1.6 | 1.6 | 0.00 | 0.00 | 0.00 | 88 | 1007.3 |
| 20260505054124 | 17 | 62 | 0.0 | 0.0 | 0.00 | 0.00 | 0.00 | 86 | 1007.6 |
| 20260505053621 | 17 | 65 | 0.0 | 1.6 | 0.00 | 0.00 | 0.00 | 85 | 1007.8 |
| 20260505053117 | 17 | 112 | 1.6 | 1.6 | 0.00 | 0.00 | 0.00 | 84 | 1007.4 |
| 20260505052614 | 17 | 88 | 0.0 | 0.0 | 0.00 | 0.00 | 0.00 | 84 | 1007.5 |
| 20260505052112 | 17 | 109 | 1.6 | 1.6 | 0.00 | 0.00 | 0.00 | 84 | 1007.3 |
| 20260505051608 | 17 | 230 | 3.2 | 4.8 | 0.00 | 0.00 | 0.00 | 84 | 1007.5 |
| 20260505051107 | 17 | 18 | 0.0 | 0.0 | 0.00 | 0.00 | 0.00 | 85 | 1007.3 |
| 20260505050604 | 17 | 149 | 1.6 | 3.2 | 0.00 | 0.00 | 0.00 | 84 | 1007.0 |
| 20260505041532 | 15 | 137 | 1.6 | 3.2 | 0.00 | 0.00 | 0.00 | 92 | 1006.8 |
| 20260505041030 | 15 | 131 | 3.2 | 3.2 | 0.00 | 0.00 | 0.00 | 92 | 1007.2 |
| 20260505040527 | 15 | 130 | 3.2 | 3.2 | 0.00 | 0.00 | 0.00 | 92 | 1006.9 |
| 20260505040024 | 15 | 125 | 3.2 | 3.2 | 0.00 | 0.00 | 0.00 | 92 | 1007.2 |
| 20260505035520 | 15 | 138 | 3.2 | 3.2 | 0.00 | 0.00 | 0.00 | 92 | 1007.3 |
| 20260505035017 | 15 | 123 | 1.6 | 1.6 | 0.00 | 0.00 | 0.00 | 92 | 1007.2 |
| 20260505034513 | 15 | 119 | 1.6 | 1.6 | 0.00 | 0.00 | 0.00 | 92 | 1007.2 |
| 20260505034010 | 15 | 127 | 1.6 | 1.6 | 0.00 | 0.00 | 0.00 | 92 | 1007.3 |
| 20260505033507 | 15 | 156 | 3.2 | 3.2 | 0.00 | 0.00 | 0.00 | 91 | 1007.3 |
| 20260505033005 | 15 | 147 | 1.6 | 1.6 | 0.00 | 0.00 | 0.00 | 91 | 1007.5 |
| 20260505032502 | 15 | 142 | 0.0 | 1.6 | 0.00 | 0.00 | 0.00 | 91 | 1007.5 |
| 20260505031959 | 15 | 156 | 3.2 | 3.2 | 0.00 | 0.00 | 0.00 | 91 | 1007.4 |
| 20260505031455 | 15 | 160 | 4.8 | 4.8 | 0.00 | 0.00 | 0.00 | 90 | 1007.4 |
| 20260505030952 | 16 | 164 | 3.2 | 3.2 | 0.00 | 0.00 | 0.00 | 90 | 1007.4 |
| 20260505030449 | 16 | 159 | 3.2 | 3.2 | 0.00 | 0.00 | 0.00 | 90 | 1007.4 |
| 20260505025944 | 16 | 155 | 4.8 | 4.8 | 0.00 | 0.00 | 0.00 | 89 | 1007.5 |
| 20260505025441 | 16 | 161 | 3.2 | 3.2 | 0.00 | 0.00 | 0.00 | 89 | 1007.5 |
| 20260505024940 | 16 | 148 | 1.6 | 3.2 | 0.00 | 0.00 | 0.00 | 89 | 1007.7 |
| 20260505024437 | 16 | 156 | 4.8 | 4.8 | 0.00 | 0.00 | 0.00 | 88 | 1007.7 |
| 20260505023934 | 16 | 152 | 3.2 | 3.2 | 0.00 | 0.00 | 0.00 | 88 | 1007.5 |
| 20260505023431 | 16 | 167 | 3.2 | 3.2 | 0.00 | 0.00 | 0.00 | 87 | 1007.3 |
| 20260505022928 | 16 | 147 | 1.6 | 3.2 | 0.00 | 0.00 | 0.00 | 87 | 1007.3 |
| 20260505022426 | 16 | 164 | 3.2 | 3.2 | 0.00 | 0.00 | 0.00 | 86 | 1007.3 |
| 20260505021923 | 16 | 158 | 3.2 | 3.2 | 0.00 | 0.00 | 0.00 | 86 | 1007.2 |
| 20260505021419 | 17 | 153 | 1.6 | 3.2 | 0.00 | 0.00 | 0.00 | 85 | 1007.4 |
| 20260505020915 | 17 | 164 | 3.2 | 3.2 | 0.00 | 0.00 | 0.00 | 84 | 1007.3 |
| 20260505020410 | 17 | 171 | 3.2 | 3.2 | 0.00 | 0.00 | 0.00 | 83 | 1007.3 |
| 20260505015908 | 17 | 157 | 1.6 | 1.6 | 0.00 | 0.00 | 0.00 | 82 | 1007.2 |
| 20260505015405 | 17 | 160 | 1.6 | 1.6 | 0.00 | 0.00 | 0.00 | 81 | 1007.2 |
| 20260505014902 | 17 | 139 | 1.6 | 1.6 | 0.00 | 0.00 | 0.00 | 80 | 1007.2 |
| 20260505014359 | 18 | 161 | 1.6 | 1.6 | 0.00 | 0.00 | 0.00 | 79 | 1007.0 |
| 20260505013855 | 18 | 157 | 1.6 | 3.2 | 0.00 | 0.00 | 0.00 | 78 | 1006.9 |
| 20260505013353 | 18 | 158 | 3.2 | 3.2 | 0.00 | 0.00 | 0.00 | 78 | 1007.0 |
| 20260505012851 | 18 | 234 | 1.6 | 1.6 | 0.00 | 0.00 | 0.00 | 77 | 1007.0 |
| 20260505012349 | 19 | 266 | 1.6 | 1.6 | 0.00 | 0.00 | 0.00 | 76 | 1006.9 |
| 20260505011844 | 19 | 244 | 1.6 | 1.6 | 0.00 | 0.00 | 0.00 | 75 | 1006.9 |
| 20260505011341 | 20 | 311 | 0.0 | 1.6 | 0.00 | 0.00 | 0.00 | 74 | 1006.8 |
| 20260505010837 | 20 | 52 | 1.6 | 1.6 | 0.00 | 0.00 | 0.00 | 73 | 1006.8 |
| 20260505010333 | 20 | 84 | 0.0 | 1.6 | 0.00 | 0.00 | 0.00 | 71 | 1006.7 |
| 20260505005830 | 21 | 71 | 1.6 | 1.6 | 0.00 | 0.00 | 0.00 | 69 | 1006.6 |
| 20260505005327 | 21 | 104 | 3.2 | 3.2 | 0.00 | 0.00 | 0.00 | 67 | 1006.7 |
| 20260505004825 | 21 | 80 | 1.6 | 1.6 | 0.00 | 0.00 | 0.00 | 68 | 1006.4 |
| 20260505004320 | 21 | 84 | 3.2 | 3.2 | 0.00 | 0.00 | 0.00 | 67 | 1006.5 |
| 20260505003818 | 22 | 71 | 3.2 | 3.2 | 0.00 | 0.00 | 0.00 | 65 | 1006.7 |
| 20260505003315 | 22 | 141 | 4.8 | 4.8 | 0.00 | 0.00 | 0.00 | 63 | 1006.5 |
| 20260505002811 | 22 | 92 | 1.6 | 3.2 | 0.00 | 0.00 | 0.00 | 63 | 1006.4 |
| 20260505002308 | 22 | 145 | 9.7 | 11.3 | 0.00 | 0.00 | 0.00 | 62 | 1006.8 |
| 20260505001807 | 22 | 68 | 1.6 | 1.6 | 0.00 | 0.00 | 0.00 | 61 | 1006.6 |
| 20260505001303 | 22 | 60 | 4.8 | 4.8 | 0.00 | 0.00 | 0.00 | 61 | 1006.8 |
| 20260505000800 | 23 | 129 | 4.8 | 4.8 | 0.00 | 0.00 | 0.00 | 62 | 1006.8 |
| 20260505000258 | 23 | 119 | 4.8 | 4.8 | 0.00 | 0.00 | 0.00 | 61 | 1006.6 |
| 20260504235754 | 23 | 106 | 8.0 | 11.3 | 0.00 | 0.00 | 0.00 | 62 | 1006.6 |
| 20260504235251 | 23 | 94 | 1.6 | 3.2 | 0.00 | 0.00 | 0.00 | 60 | 1006.3 |
| 20260504234748 | 23 | 174 | 4.8 | 8.0 | 0.00 | 0.00 | 0.00 | 60 | 1006.5 |
| 20260504234246 | 23 | 87 | 6.4 | 11.3 | 0.00 | 0.00 | 0.00 | 58 | 1006.5 |
| 20260504233742 | 24 | 73 | 1.6 | 3.2 | 0.00 | 0.00 | 0.00 | 57 | 1006.6 |
| 20260504233237 | 24 | 92 | 4.8 | 8.0 | 0.00 | 0.00 | 0.00 | 58 | 1006.5 |
| 20260504232735 | 25 | 97 | 3.2 | 4.8 | 0.00 | 0.00 | 0.00 | 55 | 1006.4 |
| 20260504232232 | 25 | 99 | 8.0 | 9.7 | 0.00 | 0.00 | 0.00 | 56 | 1006.7 |
| 20260504231728 | 25 | 48 | 4.8 | 4.8 | 0.00 | 0.00 | 0.00 | 57 | 1006.4 |
| 20260504231225 | 25 | 138 | 6.4 | 9.7 | 0.00 | 0.00 | 0.00 | 56 | 1006.6 |
| 20260504230721 | 25 | 107 | 3.2 | 3.2 | 0.00 | 0.00 | 0.00 | 55 | 1006.3 |
| 20260504230220 | 25 | 110 | 3.2 | 3.2 | 0.00 | 0.00 | 0.00 | 56 | 1006.6 |
| 20260504225718 | 26 | 165 | 1.6 | 3.2 | 0.00 | 0.00 | 0.00 | 55 | 1006.4 |
| 20260504225214 | 26 | 168 | 14.5 | 22.5 | 0.00 | 0.00 | 0.00 | 52 | 1006.4 |
| 20260504224711 | 26 | 153 | 1.6 | 1.6 | 0.00 | 0.00 | 0.00 | 54 | 1006.2 |
| 20260504224209 | 26 | 116 | 6.4 | 8.0 | 0.00 | 0.00 | 0.00 | 54 | 1006.3 |
| 20260504223705 | 25 | 170 | 4.8 | 8.0 | 0.00 | 0.00 | 0.00 | 53 | 1006.2 |
| 20260504223200 | 26 | 221 | 6.4 | 8.0 | 0.00 | 0.00 | 0.00 | 52 | 1006.4 |
| 20260504222658 | 26 | 100 | 3.2 | 3.2 | 0.00 | 0.00 | 0.00 | 55 | 1006.5 |
| 20260504222154 | 26 | 97 | 6.4 | 8.0 | 0.00 | 0.00 | 0.00 | 52 | 1006.3 |
| 20260504221652 | 26 | 99 | 4.8 | 4.8 | 0.00 | 0.00 | 0.00 | 54 | 1006.3 |
| 20260504221149 | 26 | 127 | 9.7 | 11.3 | 0.00 | 0.00 | 0.00 | 53 | 1006.3 |
| 20260504220645 | 26 | 129 | 3.2 | 4.8 | 0.00 | 0.00 | 0.00 | 54 | 1006.4 |
| 20260504220143 | 26 | 122 | 3.2 | 4.8 | 0.00 | 0.00 | 0.00 | 54 | 1006.4 |
| 20260504215639 | 26 | 132 | 4.8 | 4.8 | 0.00 | 0.00 | 0.00 | 53 | 1006.5 |
| 20260504215136 | 26 | 239 | 1.6 | 1.6 | 0.00 | 0.00 | 0.00 | 56 | 1006.6 |
| 20260504214632 | 26 | 98 | 4.8 | 8.0 | 0.00 | 0.00 | 0.00 | 55 | 1006.4 |
| 20260504214130 | 26 | 191 | 9.7 | 12.9 | 0.00 | 0.00 | 0.00 | 53 | 1006.7 |
| 20260504213625 | 26 | 158 | 16.1 | 17.7 | 0.00 | 0.00 | 0.00 | 51 | 1006.5 |
| 20260504213122 | 26 | 147 | 6.4 | 9.7 | 0.00 | 0.00 | 0.00 | 51 | 1006.8 |
| 20260504212618 | 26 | 74 | 4.8 | 4.8 | 0.00 | 0.00 | 0.00 | 53 | 1006.5 |
| 20260504212115 | 26 | 102 | 4.8 | 4.8 | 0.00 | 0.00 | 0.00 | 52 | 1007.0 |
| 20260504211613 | 27 | 185 | 8.0 | 12.9 | 0.00 | 0.00 | 0.00 | 53 | 1006.7 |
| 20260504211109 | 27 | 150 | 4.8 | 8.0 | 0.00 | 0.00 | 0.00 | 51 | 1006.9 |
| 20260504210607 | 26 | 108 | 4.8 | 8.0 | 0.00 | 0.00 | 0.00 | 51 | 1007.0 |
| 20260504205601 | 26 | 193 | 12.9 | 16.1 | 0.00 | 0.00 | 0.00 | 51 | 1007.2 |
| 20260504205058 | 26 | 182 | 8.0 | 12.9 | 0.00 | 0.00 | 0.00 | 51 | 1007.1 |
| 20260504204556 | 26 | 114 | 4.8 | 8.0 | 0.00 | 0.00 | 0.00 | 52 | 1007.5 |
| 20260504204055 | 26 | 134 | 4.8 | 4.8 | 0.00 | 0.00 | 0.00 | 53 | 1007.4 |
| 20260504203553 | 26 | 123 | 11.3 | 14.5 | 0.00 | 0.00 | 0.00 | 53 | 1007.4 |
| 20260504203050 | 26 | 157 | 14.5 | 22.5 | 0.00 | 0.00 | 0.00 | 50 | 1007.6 |
| 20260504202545 | 26 | 69 | 6.4 | 9.7 | 0.00 | 0.00 | 0.00 | 51 | 1007.7 |
| 20260504202042 | 26 | 166 | 12.9 | 17.7 | 0.00 | 0.00 | 0.00 | 50 | 1007.6 |
| 20260504201539 | 26 | 74 | 6.4 | 8.0 | 0.00 | 0.00 | 0.00 | 52 | 1007.6 |
| 20260504201037 | 26 | 126 | 11.3 | 14.5 | 0.00 | 0.00 | 0.00 | 52 | 1007.5 |
| 20260504200533 | 26 | 108 | 8.0 | 17.7 | 0.00 | 0.00 | 0.00 | 52 | 1007.7 |
| 20260504200030 | 25 | 203 | 11.3 | 16.1 | 0.00 | 0.00 | 0.00 | 52 | 1007.7 |
| 20260504195526 | 26 | 164 | 20.9 | 25.7 | 0.00 | 0.00 | 0.00 | 52 | 1007.6 |
| 20260504195023 | 26 | 93 | 3.2 | 4.8 | 0.00 | 0.00 | 0.00 | 52 | 1007.8 |
| 20260504194520 | 26 | 190 | 8.0 | 11.3 | 0.00 | 0.00 | 0.00 | 53 | 1007.8 |
| 20260504194015 | 26 | 113 | 9.7 | 14.5 | 0.00 | 0.00 | 0.00 | 52 | 1007.7 |
| 20260504193512 | 26 | 96 | 6.4 | 11.3 | 0.00 | 0.00 | 0.00 | 55 | 1007.6 |
| 20260504193011 | 26 | 142 | 20.9 | 32.2 | 0.00 | 0.00 | 0.00 | 53 | 1008.0 |
| 20260504192509 | 26 | 229 | 8.0 | 11.3 | 0.00 | 0.00 | 0.00 | 54 | 1007.9 |
| 20260504192007 | 26 | 96 | 6.4 | 9.7 | 0.00 | 0.00 | 0.00 | 54 | 1008.2 |
| 20260504191504 | 26 | 123 | 11.3 | 20.9 | 0.00 | 0.00 | 0.00 | 54 | 1008.0 |
| 20260504191000 | 26 | 186 | 11.3 | 14.5 | 0.00 | 0.00 | 0.00 | 56 | 1007.9 |
| 20260504190455 | 26 | 134 | 12.9 | 14.5 | 0.00 | 0.00 | 0.00 | 54 | 1007.6 |
| 20260504185952 | 26 | 146 | 14.5 | 20.9 | 0.00 | 0.00 | 0.00 | 54 | 1008.0 |
| 20260504185449 | 26 | 214 | 9.7 | 11.3 | 0.00 | 0.00 | 0.00 | 54 | 1008.1 |
| 20260504184945 | 26 | 126 | 9.7 | 12.9 | 0.00 | 0.00 | 0.00 | 54 | 1008.3 |
| 20260504184441 | 26 | 118 | 12.9 | 17.7 | 0.00 | 0.00 | 0.00 | 54 | 1008.1 |
| 20260504183937 | 26 | 175 | 12.9 | 16.1 | 0.00 | 0.00 | 0.00 | 55 | 1008.2 |
| 20260504183434 | 25 | 150 | 4.8 | 4.8 | 0.00 | 0.00 | 0.00 | 55 | 1008.3 |
| 20260504182933 | 25 | 61 | 11.3 | 14.5 | 0.00 | 0.00 | 0.00 | 52 | 1008.4 |
| 20260504182429 | 25 | 102 | 16.1 | 20.9 | 0.00 | 0.00 | 0.00 | 52 | 1008.3 |
| 20260504181926 | 26 | 177 | 4.8 | 8.0 | 0.00 | 0.00 | 0.00 | 53 | 1008.4 |
| 20260504181423 | 25 | 167 | 3.2 | 3.2 | 0.00 | 0.00 | 0.00 | 58 | 1008.4 |
| 20260504180922 | 25 | 182 | 4.8 | 8.0 | 0.00 | 0.00 | 0.00 | 54 | 1008.8 |
| 20260504180421 | 25 | 93 | 8.0 | 12.9 | 0.00 | 0.00 | 0.00 | 52 | 1008.7 |
| 20260504175918 | 25 | 166 | 8.0 | 11.3 | 0.00 | 0.00 | 0.00 | 55 | 1008.7 |
| 20260504175415 | 25 | 95 | 6.4 | 9.7 | 0.00 | 0.00 | 0.00 | 54 | 1009.0 |
| 20260504174913 | 25 | 221 | 8.0 | 11.3 | 0.00 | 0.00 | 0.00 | 52 | 1008.7 |
| 20260504174410 | 25 | 93 | 4.8 | 9.7 | 0.00 | 0.00 | 0.00 | 56 | 1009.0 |
| 20260504173907 | 25 | 125 | 14.5 | 17.7 | 0.00 | 0.00 | 0.00 | 53 | 1008.9 |
| 20260504173403 | 25 | 156 | 9.7 | 14.5 | 0.00 | 0.00 | 0.00 | 54 | 1008.9 |
| 20260504172901 | 25 | 128 | 8.0 | 12.9 | 0.00 | 0.00 | 0.00 | 52 | 1009.1 |
| 20260504172357 | 24 | 112 | 4.8 | 8.0 | 0.00 | 0.00 | 0.00 | 55 | 1009.2 |
| 20260504171853 | 24 | 9 | 12.9 | 20.9 | 0.00 | 0.00 | 0.00 | 55 | 1009.5 |
| 20260504171351 | 24 | 215 | 8.0 | 14.5 | 0.00 | 0.00 | 0.00 | 53 | 1009.2 |
| 20260504170848 | 24 | 151 | 11.3 | 20.9 | 0.00 | 0.00 | 0.00 | 53 | 1009.5 |
| 20260504170344 | 23 | 119 | 12.9 | 14.5 | 0.00 | 0.00 | 0.00 | 54 | 1009.2 |
| 20260504160303 | 23 | 122 | 3.2 | 8.0 | 0.00 | 0.00 | 0.00 | 55 | 1009.6 |